Zurück zum Katalog

CZ-6A DEB

AktivPO
NORAD 60641·DEBRIS·🇨🇳 China

Gestartet Aug 6, 2024 von Taiyuan Satellite Launch Center

Loading…

Nächste Überflüge (nächste 24 Stunden)

TLE

AktuellSource: Space-Track

Epoche: Sep 14, 2026, 14:39 UTC

1 60641U 24140AS  26257.61054868  .00000899  00000-0  60083-3 0  9994
2 60641  89.5811 318.7182 0341495  23.2162 338.4020 13.75628731105417

Verfolge CZ-6A DEB in Echtzeit mit AllMySat

Download on the App Store